When you browse on this site, cookies collect data to enhance your experience and personalize the content and advertising you see.
Visit our Privacy Policy to learn more. By continuing to use the site, you agree to this use of cookies and data.
  • In Österreich
  • Länderverzeichnis
  • Für 7 Tage
  • Wassertemperatur
  • Satellitenkarten
  • Wetterkarte
  • News
  • Widgets
  • user-avatar
    Anmelden

    Stündliche Wetter Adelaide

    Heute, 20 Juli, Samstag

    Zeit Temperatur Niederschläge Wind Luftdruck Luftfeuchtigkeit
    00:00 +12°C° 0 mm 5 m/S 758 mmHg 54%
    01:00 +12°C° 0 mm 5 m/S 758 mmHg 53%
    02:00 +12°C° 0 mm 5 m/S 757 mmHg 53%
    03:00 +12°C° 0 mm 5 m/S 757 mmHg 51%
    04:00 +11°C° 0 mm 6 m/S 757 mmHg 51%
    05:00 +11°C° 0 mm 6 m/S 756 mmHg 50%
    06:00 +11°C° 0 mm 6 m/S 756 mmHg 49%
    07:00 +13°C° 0 mm 6 m/S 756 mmHg 49%
    08:00 +14°C° 0 mm 7 m/S 756 mmHg 49%
    09:00 +14°C° 0 mm 7 m/S 755 mmHg 49%
    10:00 +15°C° 0 mm 7 m/S 755 mmHg 48%
    11:00 +16°C° 0 mm 8 m/S 754 mmHg 47%
    12:00 +17°C° 0 mm 8 m/S 754 mmHg 46%
    13:00 +17°C° 0 mm 8 m/S 753 mmHg 46%
    14:00 +17°C° 0 mm 8 m/S 752 mmHg 46%
    15:00 +17°C° 0 mm 8 m/S 751 mmHg 46%
    16:00 +17°C° 0 mm 8 m/S 751 mmHg 46%
    17:00 +16°C° 0 mm 8 m/S 750 mmHg 46%
    18:00 +15°C° 0 mm 8 m/S 750 mmHg 46%
    19:00 +15°C° 0 mm 8 m/S 750 mmHg 46%
    20:00 +15°C° 0 mm 8 m/S 750 mmHg 45%
    21:00 +15°C° 0 mm 9 m/S 751 mmHg 44%
    22:00 +15°C° 0.2 mm 8 m/S 751 mmHg 58%
    23:00 +14°C° 0.2 mm 7 m/S 752 mmHg 72%

    Morgen, 21 Juli, Sonntag

    Zeit Temperatur Niederschläge Wind Luftdruck Luftfeuchtigkeit
    00:00 +13°C° 0.2 mm 6 m/S 752 mmHg 86%
    01:00 +11°C° 0.5 mm 6 m/S 752 mmHg 86%
    02:00 +11°C° 0.5 mm 6 m/S 753 mmHg 86%
    03:00 +11°C° 0.5 mm 6 m/S 753 mmHg 85%
    04:00 +10°C° 0 mm 5 m/S 754 mmHg 84%
    05:00 +9°C° 0 mm 5 m/S 754 mmHg 82%
    06:00 +9°C° 0 mm 5 m/S 754 mmHg 81%
    07:00 +10°C° 0 mm 5 m/S 755 mmHg 79%
    08:00 +10°C° 0 mm 5 m/S 756 mmHg 76%
    09:00 +12°C° 0 mm 5 m/S 756 mmHg 74%
    10:00 +12°C° 0.1 mm 5 m/S 756 mmHg 72%
    11:00 +13°C° 0.1 mm 5 m/S 756 mmHg 69%
    12:00 +13°C° 0.1 mm 6 m/S 756 mmHg 67%
    13:00 +13°C° 0.1 mm 6 m/S 755 mmHg 68%
    14:00 +13°C° 0.1 mm 5 m/S 755 mmHg 69%
    15:00 +13°C° 0.1 mm 5 m/S 755 mmHg 70%
    16:00 +13°C° 0 mm 5 m/S 755 mmHg 74%
    17:00 +12°C° 0 mm 4 m/S 756 mmHg 77%
    18:00 +11°C° 0 mm 4 m/S 756 mmHg 81%
    19:00 +11°C° 0 mm 4 m/S 756 mmHg 82%
    20:00 +11°C° 0 mm 4 m/S 756 mmHg 83%
    21:00 +11°C° 0 mm 4 m/S 756 mmHg 83%
    22:00 +11°C° 0 mm 4 m/S 756 mmHg 82%
    23:00 +9°C° 0 mm 5 m/S 756 mmHg 81%

    übermorgen, 22 Juli, Montag

    Zeit Temperatur Niederschläge Wind Luftdruck Luftfeuchtigkeit
    00:00 +9°C° 0 mm 5 m/S 756 mmHg 80%
    01:00 +9°C° 0 mm 5 m/S 756 mmHg 81%
    02:00 +9°C° 0 mm 5 m/S 755 mmHg 83%
    03:00 +9°C° 0 mm 6 m/S 755 mmHg 84%
    04:00 +9°C° 0 mm 6 m/S 755 mmHg 85%
    05:00 +9°C° 0 mm 6 m/S 755 mmHg 86%
    06:00 +9°C° 0 mm 6 m/S 755 mmHg 87%
    07:00 +10°C° 0 mm 7 m/S 755 mmHg 80%
    08:00 +10°C° 0 mm 8 m/S 755 mmHg 73%
    09:00 +11°C° 0 mm 9 m/S 755 mmHg 67%
    10:00 +12°C° 0 mm 10 m/S 754 mmHg 63%
    11:00 +13°C° 0 mm 10 m/S 754 mmHg 59%
    12:00 +14°C° 0 mm 10 m/S 753 mmHg 55%
    13:00 +14°C° 0 mm 10 m/S 753 mmHg 55%
    14:00 +15°C° 0 mm 9 m/S 752 mmHg 56%
    15:00 +15°C° 0 mm 9 m/S 752 mmHg 57%
    16:00 +13°C° 0.4 mm 9 m/S 752 mmHg 68%
    17:00 +13°C° 0.4 mm 8 m/S 753 mmHg 78%
    18:00 +12°C° 0.4 mm 8 m/S 753 mmHg 89%
    19:00 +11°C° 0.4 mm 8 m/S 754 mmHg 87%
    20:00 +11°C° 0.4 mm 7 m/S 754 mmHg 86%
    21:00 +11°C° 0.4 mm 7 m/S 755 mmHg 84%
    22:00 +11°C° 0 mm 7 m/S 755 mmHg 80%
    23:00 +10°C° 0 mm 8 m/S 755 mmHg 76%

    23 Juli, Dienstag

    Zeit Temperatur Niederschläge Wind Luftdruck Luftfeuchtigkeit
    00:00 +10°C° 0 mm 8 m/S 756 mmHg 72%
    01:00 +10°C° 0 mm 8 m/S 756 mmHg 70%
    02:00 +10°C° 0 mm 8 m/S 756 mmHg 69%
    03:00 +9°C° 0 mm 8 m/S 756 mmHg 67%
    04:00 +9°C° 0 mm 7 m/S 757 mmHg 68%
    05:00 +9°C° 0 mm 7 m/S 757 mmHg 69%
    06:00 +9°C° 0 mm 6 m/S 757 mmHg 70%
    07:00 +9°C° 0 mm 7 m/S 757 mmHg 70%
    08:00 +10°C° 0 mm 8 m/S 758 mmHg 69%
    09:00 +10°C° 0 mm 8 m/S 758 mmHg 68%
    10:00 +10°C° 0.1 mm 9 m/S 758 mmHg 68%
    11:00 +11°C° 0.1 mm 10 m/S 757 mmHg 68%
    12:00 +11°C° 0.1 mm 10 m/S 757 mmHg 68%
    13:00 +11°C° 0.1 mm 10 m/S 757 mmHg 69%
    14:00 +11°C° 0.1 mm 10 m/S 756 mmHg 71%
    15:00 +11°C° 0.1 mm 11 m/S 756 mmHg 73%
    16:00 +11°C° 1.3 mm 9 m/S 757 mmHg 77%
    17:00 +11°C° 1.3 mm 8 m/S 758 mmHg 81%
    18:00 +10°C° 1.3 mm 6 m/S 758 mmHg 86%
    19:00 +10°C° 0 mm 6 m/S 759 mmHg 83%
    20:00 +9°C° 0 mm 6 m/S 760 mmHg 80%
    21:00 +9°C° 0 mm 6 m/S 761 mmHg 77%
    22:00 +9°C° 0 mm 6 m/S 761 mmHg 76%
    23:00 +9°C° 0 mm 5 m/S 762 mmHg 76%

    24 Juli, Mittwoch

    Zeit Temperatur Niederschläge Wind Luftdruck Luftfeuchtigkeit
    00:00 +9°C° 0 mm 5 m/S 762 mmHg 75%
    01:00 +8°C° 0 mm 5 m/S 762 mmHg 76%
    02:00 +8°C° 0 mm 4 m/S 762 mmHg 76%
    03:00 +8°C° 0 mm 4 m/S 763 mmHg 77%
    04:00 +8°C° 0 mm 3 m/S 763 mmHg 78%
    05:00 +8°C° 0 mm 3 m/S 764 mmHg 78%
    06:00 +8°C° 0 mm 3 m/S 764 mmHg 79%
    07:00 +9°C° 0 mm 3 m/S 765 mmHg 75%
    08:00 +10°C° 0 mm 3 m/S 765 mmHg 72%
    09:00 +11°C° 0 mm 3 m/S 766 mmHg 68%
    10:00 +12°C° 0 mm 3 m/S 766 mmHg 66%
    11:00 +12°C° 0 mm 3 m/S 765 mmHg 64%
    12:00 +14°C° 0 mm 2 m/S 765 mmHg 62%
    13:00 +14°C° 0 mm 2 m/S 765 mmHg 63%
    14:00 +14°C° 0 mm 2 m/S 765 mmHg 64%
    15:00 +13°C° 0 mm 2 m/S 765 mmHg 65%
    16:00 +12°C° 0 mm 2 m/S 765 mmHg 70%
    17:00 +11°C° 0 mm 1 m/S 765 mmHg 75%
    18:00 +10°C° 0 mm 1 m/S 765 mmHg 81%
    19:00 +10°C° 0 mm 1 m/S 765 mmHg 81%
    20:00 +10°C° 0 mm 1 m/S 766 mmHg 82%
    21:00 +10°C° 0 mm 1 m/S 766 mmHg 83%
    22:00 +11°C° 0 mm 1 m/S 766 mmHg 83%
    23:00 +10°C° 0 mm 2 m/S 765 mmHg 83%

    25 Juli, Donnerstag

    Zeit Temperatur Niederschläge Wind Luftdruck Luftfeuchtigkeit
    00:00 +10°C° 0 mm 2 m/S 765 mmHg 82%
    01:00 +10°C° 0 mm 2 m/S 765 mmHg 83%
    02:00 +10°C° 0 mm 2 m/S 765 mmHg 84%
    03:00 +10°C° 0 mm 2 m/S 765 mmHg 84%
    04:00 +10°C° 0 mm 3 m/S 765 mmHg 84%
    05:00 +10°C° 0 mm 3 m/S 765 mmHg 84%
    06:00 +9°C° 0 mm 3 m/S 765 mmHg 85%
    07:00 +10°C° 0 mm 3 m/S 765 mmHg 82%
    08:00 +11°C° 0 mm 3 m/S 765 mmHg 79%
    09:00 +12°C° 0 mm 4 m/S 765 mmHg 77%
    10:00 +12°C° 0 mm 4 m/S 765 mmHg 74%
    11:00 +12°C° 0 mm 4 m/S 765 mmHg 72%
    12:00 +13°C° 0 mm 5 m/S 764 mmHg 69%
    13:00 +13°C° 0 mm 4 m/S 764 mmHg 70%
    14:00 +13°C° 0 mm 4 m/S 763 mmHg 71%
    15:00 +13°C° 0 mm 4 m/S 763 mmHg 71%
    16:00 +13°C° 0 mm 4 m/S 763 mmHg 74%
    17:00 +12°C° 0 mm 3 m/S 763 mmHg 78%
    18:00 +12°C° 0 mm 3 m/S 763 mmHg 81%
    19:00 +11°C° 0 mm 3 m/S 763 mmHg 82%
    20:00 +11°C° 0 mm 3 m/S 763 mmHg 83%
    21:00 +11°C° 0 mm 3 m/S 763 mmHg 85%
    22:00 +11°C° 0 mm 3 m/S 763 mmHg 85%
    23:00 +10°C° 0 mm 3 m/S 763 mmHg 85%
    Mehr zeigen